Weather History for Vitoria, Spain

Change the Weather History Date:

Tuesday, September 11, 2012

  Actual Average Record
Temperature  
Mean Temperature 70 °F -  
Max Temperature 80 °F 71 °F 93 °F (1999)
Min Temperature 59 °F 47 °F 37 °F (1996)
Cooling Degree Days 4    
Growing Degree Days 20 (Base 50)    
Moisture  
Dew Point 61 °F    
Average Humidity 79    
Maximum Humidity 100    
Minimum Humidity 42    
Precipitation  
Precipitation 0.00 in - - ()
Sea Level Pressure  
Sea Level Pressure 30.10 in    
Wind  
Wind Speed 4 mph ()    
Max Wind Speed 18 mph    
Max Gust Speed -    
Visibility 5.3 miles    
Events Fog    
Averages and records for this station are not official NWS values.
T = Trace of Precipitation, MM = Missing Value Source: Averaged Metar Reports

Daily Weather History Graph

Daily Weather History Graph

Search for Another Location

Airport:

Trip Planner

Search our weather history database for the weather conditions in past years. The results will help you decide how hot, cold, wet, or windy it might be!

Date:

Astronomy

Sep. 11, 2012 Rise Set
Actual Time 7:46 AM CEST 8:27 PM CEST
Civil Twilight 7:17 AM CEST 8:56 PM CEST
Nautical Twilight 6:44 AM CEST 9:29 PM CEST
Astronomical Twilight 6:08 AM CEST 10:04 PM CEST
Moon 2:44 AM CEST (9/11) 5:33 PM CEST (9/11)
Length of Visible Light 13h 38m
Length of Day
12h 40m
Waning Crescent, 24% of the Moon is Illuminated
Sep 11
Waning Crescent
Sep 16
New
Sep 22
First Quarter
Sep 30
Full
Oct 8
Last Quarter

Hourly Weather History & Observations

Time (CEST) Temp. Heat Index Dew Point Humidity Pressure Visibility Wind Dir Wind Speed Gust Speed Precip Events Conditions
12:00 AM 64.4 °F - 62.6 °F 94% 30.06 in 6.2 mi SE 2.3 mph - N/A   Scattered Clouds
12:30 AM 66.2 °F - 64.4 °F 94% 30.06 in 6.2 mi NNE 6.9 mph - N/A   Scattered Clouds
1:00 AM 64.4 °F - 62.6 °F 94% 30.06 in 6.2 mi NE 2.3 mph - N/A   Scattered Clouds
1:30 AM 64.4 °F - 62.6 °F 94% 30.06 in 6.2 mi Variable 2.3 mph - N/A   Scattered Clouds
2:00 AM 62.6 °F - 60.8 °F 94% 30.06 in 6.2 mi NNE 3.5 mph - N/A   Partly Cloudy
2:30 AM 62.6 °F - 60.8 °F 94% 30.06 in 6.2 mi Variable 2.3 mph - N/A   Partly Cloudy
3:00 AM 62.6 °F - 60.8 °F 94% 30.06 in 6.2 mi Calm Calm - N/A   Scattered Clouds
3:30 AM 64.4 °F - 62.6 °F 94% 30.06 in 6.2 mi NNE 1.2 mph - N/A   Scattered Clouds
4:00 AM 64.4 °F - 62.6 °F 94% 30.06 in 6.2 mi Calm Calm - N/A   Scattered Clouds
4:30 AM 64.4 °F - 60.8 °F 88% 30.06 in 6.2 mi Calm Calm - N/A   Scattered Clouds
5:00 AM 62.6 °F - 60.8 °F 94% 30.06 in 6.2 mi Calm Calm - N/A   Scattered Clouds
5:30 AM 60.8 °F - 59.0 °F 94% 30.06 in 5.6 mi Calm Calm - N/A   Scattered Clouds
6:00 AM 59.0 °F - 59.0 °F 100% 30.06 in 3.7 mi Calm Calm - N/A Fog Patches of Fog
6:30 AM 60.8 °F - 60.8 °F 100% 30.09 in 1.9 mi Calm Calm - N/A   Scattered Clouds
7:00 AM 62.6 °F - 60.8 °F 94% 30.09 in 0.9 mi Calm Calm - N/A Fog Scattered Clouds
7:13 AM 62.6 °F - 62.6 °F 100% 30.09 in 1.0 mi Calm Calm - N/A Fog Scattered Clouds
7:30 AM 62.6 °F - 62.6 °F 100% 30.09 in 1.7 mi Calm Calm - N/A Fog Mostly Cloudy
8:00 AM 62.6 °F - 62.6 °F 100% 30.09 in 2.2 mi Calm Calm - N/A Fog Mostly Cloudy
8:30 AM 62.6 °F - 62.6 °F 100% 30.09 in 2.5 mi Variable 1.2 mph - N/A   Mostly Cloudy
9:00 AM 62.6 °F - 60.8 °F 94% 30.09 in 2.5 mi Variable 1.2 mph - N/A   Mostly Cloudy
9:30 AM 62.6 °F - 62.6 °F 100% 30.09 in 2.5 mi Variable 1.2 mph - N/A   Mostly Cloudy
10:00 AM 64.4 °F - 60.8 °F 88% 30.09 in 3.7 mi Calm Calm - N/A   Scattered Clouds
10:30 AM 68.0 °F - 62.6 °F 83% 30.12 in 5.0 mi SW 1.2 mph - N/A   Scattered Clouds
11:00 AM 69.8 °F - 60.8 °F 73% 30.12 in 5.6 mi SW 6.9 mph - N/A   Scattered Clouds
11:30 AM 71.6 °F - 60.8 °F 69% 30.12 in 6.2 mi SSW 3.5 mph - N/A   Partly Cloudy
12:00 PM 75.2 °F - 57.2 °F 53% 30.12 in 6.2 mi South 4.6 mph - N/A   Partly Cloudy
12:30 PM 75.2 °F - 57.2 °F 53% 30.12 in 6.2 mi Variable 2.3 mph - N/A   Partly Cloudy
1:00 PM 78.8 °F - 59.0 °F 51% 30.12 in 6.2 mi SW 6.9 mph - N/A   Partly Cloudy
1:30 PM 78.8 °F - 59.0 °F 51% 30.09 in 6.2 mi East 1.2 mph - N/A   Partly Cloudy
2:00 PM 80.6 °F 80.8 °F 57.2 °F 45% 30.09 in 6.2 mi South 1.2 mph - N/A   Partly Cloudy
2:30 PM 80.6 °F 80.5 °F 55.4 °F 42% 30.09 in 6.2 mi ENE 2.3 mph - N/A   Partly Cloudy
3:00 PM 78.8 °F - 59.0 °F 51% 30.09 in 6.2 mi North 8.1 mph - N/A   Partly Cloudy
3:30 PM 80.6 °F 81.5 °F 60.8 °F 51% 30.09 in 6.2 mi NNE 11.5 mph - N/A   Scattered Clouds
4:00 PM 78.8 °F - 60.8 °F 54% 30.09 in 6.2 mi NNE 11.5 mph - N/A   Scattered Clouds
4:30 PM 78.8 °F - 60.8 °F 54% 30.09 in 6.2 mi NNE 16.1 mph - N/A   Partly Cloudy
5:00 PM 77.0 °F - 62.6 °F 61% 30.09 in 6.2 mi NNE 17.3 mph - N/A   Partly Cloudy
5:30 PM 75.2 °F - 60.8 °F 61% 30.09 in 6.2 mi NNE 18.4 mph - N/A   Partly Cloudy
6:00 PM 75.2 °F - 60.8 °F 61% 30.12 in 6.2 mi NNE 17.3 mph - N/A   Partly Cloudy
6:30 PM 73.4 °F - 62.6 °F 69% 30.12 in 6.2 mi NNE 15.0 mph - N/A   Partly Cloudy
7:00 PM 71.6 °F - 62.6 °F 73% 30.12 in 6.2 mi North 13.8 mph - N/A   Partly Cloudy
7:30 PM 69.8 °F - 60.8 °F 73% 30.12 in 6.2 mi NNE 12.7 mph - N/A   Partly Cloudy
8:00 PM 69.8 °F - 60.8 °F 73% 30.12 in 6.2 mi NNE 12.7 mph - N/A   Scattered Clouds
8:30 PM 69.8 °F - 62.6 °F 78% 30.15 in 6.2 mi North 9.2 mph - N/A   Mostly Cloudy
9:00 PM 68.0 °F - 62.6 °F 83% 30.15 in 6.2 mi NNE 10.4 mph - N/A   Mostly Cloudy
9:30 PM 66.2 °F - 62.6 °F 88% 30.15 in 6.2 mi NNE 11.5 mph - N/A   Mostly Cloudy
10:30 PM 66.2 °F - 60.8 °F 83% 30.18 in 6.2 mi NNW 5.8 mph - N/A   Mostly Cloudy
11:00 PM 66.2 °F - 60.8 °F 83% 30.18 in 6.2 mi Variable 2.3 mph - N/A   Mostly Cloudy
11:30 PM 64.4 °F - 60.8 °F 88% 30.18 in 6.2 mi Calm Calm - N/A   Mostly Cloudy